When you browse on this site, cookies collect data to enhance your experience and personalize the content and advertising you see.
Visit our Privacy Policy to learn more. By continuing to use the site, you agree to this use of cookies and data.
  • Em Portugal
  • Lista de países
  • Para 7 dias
  • Temperatura da água
  • Mapas de satélite
  • Mapa do tempo
  • Widgets de tempo
  • user-avatar
    Iniciar Sessão

    Previsão horária em Sadkino

    Hoje, 21 Julho, Domingo

    Tempo Temperatura Precipitação Vento Pressão Humidade
    00:00 +16°C° 0 mm 3 m/s 745 mmHg 85%
    01:00 +14°C° 0 mm 3 m/s 746 mmHg 87%
    02:00 +14°C° 0 mm 3 m/s 746 mmHg 88%
    03:00 +14°C° 0 mm 3 m/s 746 mmHg 91%
    04:00 +14°C° 0 mm 3 m/s 746 mmHg 90%
    05:00 +16°C° 0 mm 3 m/s 746 mmHg 88%
    06:00 +16°C° 0 mm 3 m/s 747 mmHg 87%
    07:00 +18°C° 0 mm 3 m/s 747 mmHg 81%
    08:00 +19°C° 0 mm 4 m/s 747 mmHg 75%
    09:00 +21°C° 0 mm 4 m/s 747 mmHg 68%
    10:00 +22°C° 0 mm 4 m/s 747 mmHg 64%
    11:00 +23°C° 0 mm 4 m/s 747 mmHg 60%
    12:00 +25°C° 0 mm 5 m/s 747 mmHg 56%
    13:00 +25°C° 0 mm 5 m/s 746 mmHg 55%
    14:00 +26°C° 0 mm 5 m/s 746 mmHg 54%
    15:00 +26°C° 0 mm 5 m/s 746 mmHg 53%
    16:00 +25°C° 0.1 mm 5 m/s 746 mmHg 57%
    17:00 +25°C° 0.1 mm 4 m/s 746 mmHg 62%
    18:00 +24°C° 0.1 mm 3 m/s 746 mmHg 66%
    19:00 +22°C° 0 mm 3 m/s 746 mmHg 72%
    20:00 +20°C° 0 mm 2 m/s 746 mmHg 78%
    21:00 +18°C° 0 mm 2 m/s 746 mmHg 84%
    22:00 +17°C° 0 mm 2 m/s 746 mmHg 86%
    23:00 +17°C° 0 mm 2 m/s 746 mmHg 89%

    Amanhã, 22 Julho, Segunda-feira

    Tempo Temperatura Precipitação Vento Pressão Humidade
    00:00 +16°C° 0 mm 2 m/s 746 mmHg 91%
    01:00 +16°C° 0 mm 2 m/s 746 mmHg 92%
    02:00 +16°C° 0 mm 2 m/s 746 mmHg 93%
    03:00 +15°C° 0 mm 2 m/s 746 mmHg 94%
    04:00 +15°C° 0 mm 2 m/s 746 mmHg 91%
    05:00 +16°C° 0 mm 2 m/s 747 mmHg 88%
    06:00 +16°C° 0 mm 2 m/s 747 mmHg 85%
    07:00 +17°C° 0 mm 2 m/s 747 mmHg 77%
    08:00 +19°C° 0 mm 2 m/s 747 mmHg 69%
    09:00 +20°C° 0 mm 2 m/s 747 mmHg 60%
    10:00 +21°C° 0 mm 2 m/s 747 mmHg 57%
    11:00 +23°C° 0 mm 2 m/s 747 mmHg 55%
    12:00 +24°C° 0 mm 2 m/s 746 mmHg 52%
    13:00 +25°C° 0 mm 2 m/s 746 mmHg 51%
    14:00 +25°C° 0 mm 2 m/s 746 mmHg 50%
    15:00 +26°C° 0 mm 2 m/s 746 mmHg 48%
    16:00 +25°C° 0 mm 2 m/s 746 mmHg 51%
    17:00 +25°C° 0 mm 2 m/s 746 mmHg 55%
    18:00 +25°C° 0 mm 2 m/s 746 mmHg 58%
    19:00 +23°C° 0 mm 1 m/s 745 mmHg 64%
    20:00 +22°C° 0 mm 1 m/s 745 mmHg 70%
    21:00 +18°C° 0 mm 0 m/s 745 mmHg 76%
    22:00 +19°C° 0 mm 1 m/s 745 mmHg 77%
    23:00 +19°C° 0 mm 1 m/s 745 mmHg 78%

    Depois de amanhã, 23 Julho, Terça-feira

    Tempo Temperatura Precipitação Vento Pressão Humidade
    00:00 +19°C° 0 mm 1 m/s 745 mmHg 79%
    01:00 +18°C° 0 mm 1 m/s 745 mmHg 80%
    02:00 +18°C° 0 mm 1 m/s 744 mmHg 80%
    03:00 +18°C° 0 mm 1 m/s 744 mmHg 81%
    04:00 +18°C° 0 mm 1 m/s 744 mmHg 81%
    05:00 +19°C° 0 mm 1 m/s 744 mmHg 81%
    06:00 +19°C° 0 mm 1 m/s 744 mmHg 81%
    07:00 +20°C° 0 mm 1 m/s 744 mmHg 79%
    08:00 +21°C° 0 mm 1 m/s 744 mmHg 76%
    09:00 +22°C° 0 mm 1 m/s 744 mmHg 74%
    10:00 +21°C° 0.2 mm 1 m/s 744 mmHg 78%
    11:00 +21°C° 0.2 mm 1 m/s 744 mmHg 82%
    12:00 +20°C° 0.2 mm 1 m/s 744 mmHg 87%
    13:00 +19°C° 0 mm 2 m/s 744 mmHg 87%
    14:00 +19°C° 0 mm 2 m/s 744 mmHg 87%
    15:00 +19°C° 0 mm 3 m/s 744 mmHg 87%
    16:00 +20°C° 0 mm 3 m/s 744 mmHg 83%
    17:00 +21°C° 0 mm 3 m/s 744 mmHg 80%
    18:00 +22°C° 0 mm 3 m/s 744 mmHg 76%
    19:00 +21°C° 0.4 mm 3 m/s 743 mmHg 82%
    20:00 +19°C° 0.4 mm 3 m/s 743 mmHg 88%
    21:00 +18°C° 0.4 mm 3 m/s 743 mmHg 93%
    22:00 +18°C° 1.2 mm 3 m/s 743 mmHg 94%
    23:00 +18°C° 1.2 mm 2 m/s 743 mmHg 95%

    24 Julho, Quarta-feira

    Tempo Temperatura Precipitação Vento Pressão Humidade
    00:00 +17°C° 1.2 mm 2 m/s 743 mmHg 95%
    01:00 +18°C° 2.3 mm 2 m/s 743 mmHg 96%
    02:00 +18°C° 2.3 mm 2 m/s 743 mmHg 97%
    03:00 +18°C° 2.3 mm 3 m/s 743 mmHg 98%
    04:00 +18°C° 0.3 mm 2 m/s 743 mmHg 96%
    05:00 +18°C° 0.3 mm 2 m/s 743 mmHg 95%
    06:00 +18°C° 0.3 mm 2 m/s 743 mmHg 94%
    07:00 +18°C° 0.2 mm 2 m/s 743 mmHg 93%
    08:00 +20°C° 0.2 mm 1 m/s 743 mmHg 92%
    09:00 +20°C° 0.2 mm 1 m/s 743 mmHg 91%
    10:00 +21°C° 0.1 mm 1 m/s 743 mmHg 86%
    11:00 +22°C° 0.1 mm 1 m/s 743 mmHg 81%
    12:00 +22°C° 0.1 mm 0 m/s 743 mmHg 75%
    13:00 +24°C° 0 mm 1 m/s 743 mmHg 75%
    14:00 +24°C° 0 mm 2 m/s 744 mmHg 75%
    15:00 +24°C° 0 mm 3 m/s 744 mmHg 75%
    16:00 +22°C° 0.5 mm 3 m/s 744 mmHg 78%
    17:00 +22°C° 0.5 mm 3 m/s 744 mmHg 81%
    18:00 +21°C° 0.5 mm 3 m/s 743 mmHg 84%
    19:00 +20°C° 0 mm 3 m/s 744 mmHg 87%
    20:00 +18°C° 0 mm 3 m/s 744 mmHg 91%
    21:00 +17°C° 0 mm 3 m/s 744 mmHg 94%
    22:00 +17°C° 0 mm 3 m/s 744 mmHg 94%
    23:00 +16°C° 0 mm 3 m/s 744 mmHg 94%

    25 Julho, Quinta-feira

    Tempo Temperatura Precipitação Vento Pressão Humidade
    00:00 +16°C° 0 mm 3 m/s 745 mmHg 93%
    01:00 +16°C° 0 mm 3 m/s 745 mmHg 94%
    02:00 +14°C° 0 mm 3 m/s 745 mmHg 95%
    03:00 +15°C° 0 mm 2 m/s 745 mmHg 96%
    04:00 +14°C° 0 mm 3 m/s 745 mmHg 96%
    05:00 +16°C° 0 mm 3 m/s 745 mmHg 95%
    06:00 +15°C° 0 mm 4 m/s 745 mmHg 94%
    07:00 +18°C° 0 mm 3 m/s 746 mmHg 90%
    08:00 +19°C° 0 mm 3 m/s 746 mmHg 87%
    09:00 +20°C° 0 mm 3 m/s 746 mmHg 83%
    10:00 +21°C° 0 mm 3 m/s 746 mmHg 80%
    11:00 +22°C° 0 mm 3 m/s 746 mmHg 77%
    12:00 +24°C° 0 mm 3 m/s 746 mmHg 74%
    13:00 +25°C° 0.1 mm 3 m/s 746 mmHg 72%
    14:00 +25°C° 0.1 mm 3 m/s 746 mmHg 71%
    15:00 +25°C° 0.1 mm 3 m/s 746 mmHg 70%
    16:00 +25°C° 0.4 mm 2 m/s 746 mmHg 73%
    17:00 +24°C° 0.4 mm 1 m/s 746 mmHg 76%
    18:00 +23°C° 0.4 mm 1 m/s 746 mmHg 79%
    19:00 +23°C° 0.2 mm 1 m/s 746 mmHg 81%
    20:00 +21°C° 0.2 mm 2 m/s 746 mmHg 83%
    21:00 +20°C° 0.2 mm 2 m/s 746 mmHg 85%
    22:00 +20°C° 0.5 mm 2 m/s 746 mmHg 86%
    23:00 +20°C° 0.5 mm 2 m/s 746 mmHg 86%

    26 Julho, Sexta-feira

    Tempo Temperatura Precipitação Vento Pressão Humidade
    00:00 +19°C° 0.5 mm 2 m/s 746 mmHg 87%
    01:00 +19°C° 0.1 mm 2 m/s 746 mmHg 89%
    02:00 +19°C° 0.1 mm 2 m/s 746 mmHg 90%
    03:00 +18°C° 0.1 mm 3 m/s 746 mmHg 92%
    04:00 +18°C° 0 mm 3 m/s 745 mmHg 92%
    05:00 +18°C° 0 mm 3 m/s 745 mmHg 91%
    06:00 +18°C° 0 mm 3 m/s 745 mmHg 90%
    07:00 +19°C° 0 mm 3 m/s 745 mmHg 86%
    08:00 +20°C° 0 mm 4 m/s 745 mmHg 82%
    09:00 +21°C° 0 mm 4 m/s 745 mmHg 78%
    10:00 +22°C° 0 mm 4 m/s 745 mmHg 73%
    11:00 +23°C° 0 mm 4 m/s 745 mmHg 67%
    12:00 +26°C° 0 mm 4 m/s 745 mmHg 61%
    13:00 +26°C° 0 mm 4 m/s 745 mmHg 59%
    14:00 +26°C° 0 mm 4 m/s 744 mmHg 58%
    15:00 +27°C° 0 mm 4 m/s 744 mmHg 56%
    16:00 +26°C° 0 mm 4 m/s 744 mmHg 59%
    17:00 +26°C° 0 mm 3 m/s 744 mmHg 63%
    18:00 +25°C° 0 mm 3 m/s 743 mmHg 66%
    19:00 +24°C° 0.1 mm 3 m/s 743 mmHg 71%
    20:00 +21°C° 0.1 mm 3 m/s 743 mmHg 76%
    21:00 +19°C° 0.1 mm 4 m/s 744 mmHg 81%
    22:00 +18°C° 0 mm 4 m/s 743 mmHg 81%
    23:00 +18°C° 0 mm 4 m/s 743 mmHg 82%
    Mostrar mais